When you browse on this site, cookies collect data to enhance your experience and personalize the content and advertising you see.
Visit our Privacy Policy to learn more. By continuing to use the site, you agree to this use of cookies and data.
  • în România
  • Lista ţărilor
  • Pe 7 zile
  • Temperatura apei
  • Hartă satelitară
  • Meteo pe hartă
  • Widget-uri
  • user-avatar
    Intrare

    Meteo pe oră la Tucupita

    Astăzi, 26 Iunie, Miercuri

    Timp Temperatura Precipitaţii Vânt Presiune Umiditate
    00:00 +25°C° 0 mm 1 m/s 760 mmHg 95%
    01:00 +25°C° 0 mm 1 m/s 760 mmHg 96%
    02:00 +25°C° 0 mm 1 m/s 759 mmHg 97%
    03:00 +24°C° 0 mm 1 m/s 759 mmHg 97%
    04:00 +24°C° 0 mm 1 m/s 759 mmHg 97%
    05:00 +24°C° 0 mm 1 m/s 759 mmHg 97%
    06:00 +25°C° 0 mm 1 m/s 759 mmHg 92%
    07:00 +27°C° 0 mm 2 m/s 760 mmHg 87%
    08:00 +28°C° 0 mm 2 m/s 760 mmHg 82%
    09:00 +29°C° 0 mm 2 m/s 760 mmHg 73%
    10:00 +31°C° 0 mm 2 m/s 760 mmHg 63%
    11:00 +34°C° 0 mm 2 m/s 760 mmHg 54%
    12:00 +34°C° 0 mm 2 m/s 759 mmHg 53%
    13:00 +35°C° 0 mm 2 m/s 759 mmHg 51%
    14:00 +35°C° 0 mm 3 m/s 759 mmHg 49%
    15:00 +34°C° 0.1 mm 3 m/s 758 mmHg 53%
    16:00 +34°C° 0.1 mm 3 m/s 757 mmHg 57%
    17:00 +33°C° 0.1 mm 3 m/s 757 mmHg 61%
    18:00 +30°C° 0 mm 3 m/s 757 mmHg 69%
    19:00 +28°C° 0 mm 2 m/s 758 mmHg 77%
    20:00 +26°C° 0 mm 2 m/s 758 mmHg 85%
    21:00 +26°C° 0 mm 2 m/s 759 mmHg 88%
    22:00 +25°C° 0 mm 1 m/s 759 mmHg 91%
    23:00 +25°C° 0 mm 1 m/s 760 mmHg 94%

    Mâine, 27 Iunie, Joi

    Timp Temperatura Precipitaţii Vânt Presiune Umiditate
    00:00 +24°C° 0 mm 1 m/s 759 mmHg 95%
    01:00 +24°C° 0 mm 1 m/s 759 mmHg 96%
    02:00 +24°C° 0 mm 1 m/s 759 mmHg 97%
    03:00 +23°C° 0 mm 1 m/s 759 mmHg 97%
    04:00 +23°C° 0 mm 1 m/s 758 mmHg 97%
    05:00 +23°C° 0 mm 1 m/s 758 mmHg 97%
    06:00 +25°C° 0 mm 1 m/s 759 mmHg 90%
    07:00 +26°C° 0 mm 2 m/s 759 mmHg 84%
    08:00 +28°C° 0 mm 2 m/s 759 mmHg 77%
    09:00 +29°C° 0.1 mm 2 m/s 759 mmHg 70%
    10:00 +31°C° 0.1 mm 2 m/s 759 mmHg 62%
    11:00 +34°C° 0.1 mm 3 m/s 759 mmHg 55%
    12:00 +34°C° 0 mm 3 m/s 759 mmHg 54%
    13:00 +34°C° 0 mm 2 m/s 758 mmHg 53%
    14:00 +35°C° 0 mm 2 m/s 757 mmHg 52%
    15:00 +34°C° 0.1 mm 2 m/s 757 mmHg 57%
    16:00 +32°C° 0.1 mm 2 m/s 757 mmHg 62%
    17:00 +31°C° 0.1 mm 2 m/s 756 mmHg 68%
    18:00 +29°C° 0.2 mm 2 m/s 757 mmHg 75%
    19:00 +28°C° 0.2 mm 2 m/s 758 mmHg 82%
    20:00 +26°C° 0.2 mm 2 m/s 758 mmHg 90%
    21:00 +26°C° 0.1 mm 1 m/s 759 mmHg 91%
    22:00 +26°C° 0.1 mm 1 m/s 759 mmHg 93%
    23:00 +25°C° 0.1 mm 1 m/s 759 mmHg 94%

    Poimâine, 28 Iunie, Vineri

    Timp Temperatura Precipitaţii Vânt Presiune Umiditate
    00:00 +25°C° 0.5 mm 1 m/s 759 mmHg 95%
    01:00 +23°C° 0.5 mm 0 m/s 759 mmHg 95%
    02:00 +23°C° 0.5 mm 0 m/s 758 mmHg 96%
    03:00 +23°C° 1.1 mm 0 m/s 758 mmHg 96%
    04:00 +23°C° 1.1 mm 0 m/s 758 mmHg 97%
    05:00 +23°C° 1.1 mm 0 m/s 758 mmHg 98%
    06:00 +24°C° 0 mm 0 m/s 758 mmHg 97%
    07:00 +24°C° 0 mm 0 m/s 759 mmHg 96%
    08:00 +27°C° 0 mm 1 m/s 759 mmHg 94%
    09:00 +28°C° 0.7 mm 1 m/s 759 mmHg 90%
    10:00 +29°C° 0.7 mm 2 m/s 759 mmHg 86%
    11:00 +30°C° 0.7 mm 2 m/s 759 mmHg 82%
    12:00 +29°C° 1.6 mm 2 m/s 759 mmHg 84%
    13:00 +29°C° 1.6 mm 3 m/s 758 mmHg 87%
    14:00 +28°C° 1.6 mm 3 m/s 758 mmHg 89%
    15:00 +27°C° 1.2 mm 3 m/s 758 mmHg 91%
    16:00 +27°C° 1.2 mm 3 m/s 758 mmHg 93%
    17:00 +26°C° 1.2 mm 3 m/s 758 mmHg 95%
    18:00 +26°C° 0 mm 2 m/s 758 mmHg 96%
    19:00 +26°C° 0 mm 2 m/s 758 mmHg 96%
    20:00 +26°C° 0 mm 1 m/s 759 mmHg 97%
    21:00 +26°C° 0 mm 1 m/s 759 mmHg 97%
    22:00 +26°C° 0 mm 1 m/s 759 mmHg 97%
    23:00 +26°C° 0 mm 1 m/s 760 mmHg 97%

    29 Iunie, Sâmbătă

    Timp Temperatura Precipitaţii Vânt Presiune Umiditate
    00:00 +26°C° 0 mm 1 m/s 759 mmHg 98%
    01:00 +26°C° 0 mm 1 m/s 759 mmHg 98%
    02:00 +25°C° 0 mm 1 m/s 758 mmHg 98%
    03:00 +25°C° 0.3 mm 1 m/s 758 mmHg 98%
    04:00 +25°C° 0.3 mm 1 m/s 758 mmHg 98%
    05:00 +25°C° 0.3 mm 1 m/s 758 mmHg 99%
    06:00 +26°C° 0.1 mm 1 m/s 758 mmHg 97%
    07:00 +27°C° 0.1 mm 1 m/s 759 mmHg 95%
    08:00 +27°C° 0.1 mm 2 m/s 759 mmHg 93%
    09:00 +28°C° 0.7 mm 2 m/s 759 mmHg 88%
    10:00 +30°C° 0.7 mm 3 m/s 759 mmHg 83%
    11:00 +31°C° 0.7 mm 3 m/s 759 mmHg 79%
    12:00 +33°C° 0.2 mm 3 m/s 759 mmHg 71%
    13:00 +34°C° 0.2 mm 3 m/s 758 mmHg 64%
    14:00 +35°C° 0.2 mm 4 m/s 757 mmHg 56%
    15:00 +34°C° 0.1 mm 3 m/s 757 mmHg 60%
    16:00 +33°C° 0.1 mm 3 m/s 757 mmHg 64%
    17:00 +31°C° 0.1 mm 2 m/s 756 mmHg 68%
    18:00 +29°C° 0.1 mm 2 m/s 757 mmHg 74%
    19:00 +28°C° 0.1 mm 2 m/s 758 mmHg 81%
    20:00 +27°C° 0.1 mm 1 m/s 758 mmHg 87%
    21:00 +26°C° 0.2 mm 1 m/s 759 mmHg 90%
    22:00 +26°C° 0.2 mm 1 m/s 759 mmHg 93%
    23:00 +26°C° 0.2 mm 1 m/s 760 mmHg 96%

    30 Iunie, Duminică

    Timp Temperatura Precipitaţii Vânt Presiune Umiditate
    00:00 +26°C° 0.8 mm 1 m/s 759 mmHg 97%
    01:00 +25°C° 0.8 mm 1 m/s 759 mmHg 97%
    02:00 +25°C° 0.8 mm 1 m/s 758 mmHg 98%
    03:00 +25°C° 0.8 mm 1 m/s 758 mmHg 98%
    04:00 +25°C° 0.8 mm 1 m/s 758 mmHg 98%
    05:00 +25°C° 0.8 mm 1 m/s 758 mmHg 98%
    06:00 +26°C° 0.3 mm 1 m/s 758 mmHg 97%
    07:00 +26°C° 0.3 mm 1 m/s 759 mmHg 96%
    08:00 +27°C° 0.3 mm 1 m/s 759 mmHg 94%
    09:00 +28°C° 1.9 mm 2 m/s 759 mmHg 92%
    10:00 +28°C° 1.9 mm 2 m/s 759 mmHg 91%
    11:00 +29°C° 1.9 mm 3 m/s 759 mmHg 89%
    12:00 +29°C° 2.6 mm 3 m/s 758 mmHg 89%
    13:00 +29°C° 2.6 mm 3 m/s 758 mmHg 89%
    14:00 +29°C° 2.6 mm 3 m/s 757 mmHg 89%
    15:00 +29°C° 1.2 mm 3 m/s 757 mmHg 90%
    16:00 +28°C° 1.2 mm 3 m/s 757 mmHg 91%
    17:00 +28°C° 1.2 mm 2 m/s 757 mmHg 92%
    18:00 +27°C° 0.2 mm 2 m/s 757 mmHg 94%
    19:00 +27°C° 0.2 mm 2 m/s 758 mmHg 95%
    20:00 +26°C° 0.2 mm 1 m/s 758 mmHg 97%
    21:00 +26°C° 0.2 mm 1 m/s 759 mmHg 97%
    22:00 +26°C° 0.2 mm 1 m/s 759 mmHg 98%
    23:00 +26°C° 0.2 mm 1 m/s 759 mmHg 98%

    1 Iulie, Luni

    Timp Temperatura Precipitaţii Vânt Presiune Umiditate
    00:00 +26°C° 0.2 mm 1 m/s 759 mmHg 98%
    01:00 +26°C° 0.2 mm 1 m/s 758 mmHg 98%
    02:00 +26°C° 0.2 mm 1 m/s 758 mmHg 98%
    03:00 +25°C° 0.3 mm 1 m/s 758 mmHg 98%
    04:00 +25°C° 0.3 mm 1 m/s 758 mmHg 98%
    05:00 +25°C° 0.3 mm 1 m/s 758 mmHg 98%
    06:00 +26°C° 0.5 mm 1 m/s 758 mmHg 97%
    07:00 +27°C° 0.5 mm 2 m/s 759 mmHg 95%
    08:00 +27°C° 0.5 mm 2 m/s 759 mmHg 93%
    09:00 +28°C° 1.6 mm 2 m/s 759 mmHg 92%
    10:00 +29°C° 1.6 mm 3 m/s 759 mmHg 90%
    11:00 +29°C° 1.6 mm 3 m/s 759 mmHg 89%
    12:00 +29°C° 1.5 mm 3 m/s 759 mmHg 89%
    13:00 +29°C° 1.5 mm 3 m/s 758 mmHg 89%
    14:00 +29°C° 1.5 mm 3 m/s 758 mmHg 89%
    15:00 +29°C° 0.6 mm 2 m/s 758 mmHg 89%
    16:00 +28°C° 0.6 mm 2 m/s 758 mmHg 90%
    17:00 +28°C° 0.6 mm 2 m/s 758 mmHg 91%
    18:00 +27°C° 0.1 mm 2 m/s 758 mmHg 93%
    19:00 +27°C° 0.1 mm 2 m/s 759 mmHg 95%
    20:00 +26°C° 0.1 mm 1 m/s 759 mmHg 97%
    21:00 +26°C° 0.5 mm 1 m/s 760 mmHg 97%
    22:00 +26°C° 0.5 mm 1 m/s 760 mmHg 98%
    23:00 +26°C° 0.5 mm 1 m/s 760 mmHg 98%
    Arată mai mult